SCP
3 3 2 2 2 2 3 3 3 3 4 5 5 5 4 3 3 4 4 3 2 1 1 1 1 1 1 2 3 4 5 6 6 5 4 3 3 4
3 3 3 2 2 2 2 2 3 3 3 4 4 4 3 3 3 4 4 3 3 2 1 1 1 1 1 1 2 2 3 4 5 5 4 3 3 3
3 3 3 2 2 2 2 2 2 2 2 2 2 2 2 2 2 3 3 3 3 2 1 1 1 1 1 1 1 1 1 2 3 4 4 3 3 3
2 3 3 3 3 2 2 2 2 2 2 2 2 2 2 2 2 2 2 2 2 2 2 1 1 0 0 0 0 0 0 1 1 2 3 3 3 3
2 3 3 3 3 3 3 3 2 3 3 2 2 2 2 2 2 2 2 2 2 2 2 2 1 1 0 0 0 0 0 0 0 0 1 1 2 2
3 3 3 3 4 4 3 3 3 3 3 3 2 2 2 2 2 3 3 3 3 3 3 3 2 2 1 1 0 0 0 0 0 0 0 0 0 1
3 3 3 3 3 3 3 3 4 4 4 4 3 3 3 3 3 3 3 4 4 5 5 5 4 4 3 2 1 1 0 0 0 0 0 0 0 0
4 4 4 3 3 3 2 2 3 3 4 4 4 4 5 5 5 4 4 5 6 7 6 6 5 5 5 4 2 1 0 0 0 0 0 0 0 0
5 5 5 4 4 3 3 2 2 2 3 4 4 5 5 7 7 7 7 7 7 7 7 6 6 6 6 4 3 1 0 0 0 0 0 0 0 0
5 6 6 5 5 5 5 4 4 3 3 3 4 4 5 7 8 9 9 8 8 7 7 6 6 7 7 6 3 1 0 0 0 0 0 0 0 0
4 5 5 5 5 5 5 5 5 4 4 3 3 4 4 5 7 9 9 9 8 8 8 8 8 9 9 7 3 1 0 0 0 0 0 0 0 0
5 5 5 4 4 4 4 5 5 5 5 5 5 5 5 6 6 7 8 9 9 9 10 11 11 11 9 6 3 2 1 0 0 0 0 0 0 0
6 6 5 4 3 3 4 5 5 6 6 7 7 8 8 7 7 7 8 9 10 10 10 12 12 10 7 4 3 2 2 1 1 1 0 0 0 0
9 8 6 3 2 1 3 4 5 6 8 10 11 11 10 9 8 8 8 8 9 8 8 9 9 7 5 3 3 3 3 2 2 2 1 1 0 0
11 10 7 4 2 2 2 3 5 8 11 13 13 12 10 9 9 8 8 8 7 6 5 5 5 5 4 3 3 3 4 3 3 2 2 2 1 1
11 12 11 8 6 6 6 6 8 11 14 15 14 12 11 10 8 8 7 6 5 3 2 2 3 3 3 3 3 3 4 4 3 3 2 2 2 2
11 13 15 15 13 13 13 12 12 13 14 15 15 14 12 9 7 6 5 4 3 2 1 2 2 2 2 2 2 2 3 3 3 3 3 2 2 2
11 14 18 19 19 17 17 16 14 13 12 12 14 14 11 7 5 3 2 2 2 1 1 2 2 2 1 1 1 1 2 2 3 3 3 2 2 2
12 14 16 19 19 17 16 15 13 12 10 10 10 10 8 6 4 2 2 1 1 1 1 2 2 1 1 1 1 1 2 2 2 2 2 2 2 2
12 12 14 15 16 15 15 14 13 11 10 9 8 7 6 5 3 2 2 2 1 1 2 2 2 1 1 1 1 1 1 2 2 3 3 3 2 2
10 10 11 13 14 14 15 14 12 10 9 9 9 8 6 3 2 2 2 2 2 2 2 2 2 2 1 1 1 1 1 1 2 2 3 3 3 3
8 9 11 13 13 13 13 12 11 9 9 9 9 7 5 3 2 2 2 2 2 2 2 3 3 3 2 1 1 1 1 1 1 1 2 2 3 3
7 9 12 14 14 12 10 10 10 10 9 8 7 5 4 3 2 2 2 2 2 2 2 3 3 3 2 2 1 1 1 1 1 1 1 1 2 2
Wind_Speed
2 2 2 2 2 2 2 3 4 4 3 3 2 2 2 1 1 3 3 4 5 5 4 4 4 5 6 6 6 6 7 7 8 8 9 10 10 11
1 1 2 2 1 2 3 3 3 4 4 2 2 2 2 2 2 3 4 5 6 5 5 5 4 4 5 5 5 6 6 7 7 8 8 9 9 9
1 1 2 2 2 2 2 3 3 3 4 3 3 2 3 4 3 4 4 5 4 6 6 5 5 5 5 5 5 6 6 6 7 7 8 9 9 10
2 2 2 2 2 3 3 3 3 3 4 4 3 3 4 4 4 5 4 4 4 5 7 7 6 6 6 6 6 6 6 6 6 7 8 9 10 10
2 2 2 3 3 3 4 4 4 4 4 4 4 3 4 4 4 5 5 4 6 5 8 9 8 7 7 7 6 6 6 6 7 7 7 8 8 9
2 3 3 3 3 4 4 4 4 4 4 4 4 4 4 4 4 4 4 4 5 4 4 5 7 10 9 8 7 6 6 6 7 7 7 7 7 8
2 2 2 2 2 3 3 3 3 4 4 4 4 4 4 3 4 4 4 4 4 4 4 4 5 5 6 8 8 7 7 7 7 7 7 7 8 8
2 2 2 2 2 2 3 3 3 4 4 4 4 4 5 5 4 5 4 5 4 2 4 4 4 4 4 4 5 7 7 7 7 7 7 8 8 9
2 3 3 1 2 3 3 3 3 3 4 6 6 6 5 4 5 6 5 5 5 3 4 5 4 4 4 3 6 7 7 7 7 7 8 8 9 9
2 2 2 2 2 3 3 3 4 3 4 5 5 6 5 5 5 6 6 6 6 4 4 6 4 4 5 3 5 6 7 7 7 7 8 8 9 9
2 1 2 2 2 3 4 4 4 3 2 2 3 3 4 5 5 5 5 5 5 4 3 5 5 4 4 4 3 7 7 7 7 8 8 8 9 9
1 1 1 3 3 3 4 4 4 4 4 3 3 4 5 4 5 5 5 6 5 4 2 4 5 4 4 4 3 3 4 6 8 8 8 8 8 7
2 1 1 2 1 3 4 4 4 5 4 4 3 3 3 3 3 4 4 5 6 5 3 3 4 4 5 4 4 3 3 3 3 4 7 8 9 8
2 2 0 1 1 2 3 4 5 5 4 3 3 3 3 3 3 3 4 5 5 7 6 4 5 5 5 5 5 3 3 3 3 3 3 4 6 8
2 1 1 2 4 3 3 4 4 4 3 3 3 3 4 3 4 3 4 4 5 5 5 5 5 5 5 6 5 4 4 4 3 3 3 3 3 3
2 2 4 5 4 3 3 4 4 3 4 4 4 3 3 3 3 3 4 3 4 4 3 4 4 5 5 6 5 5 4 4 4 3 3 3 3 3
3 2 1 0 1 1 1 2 2 2 3 3 3 3 3 3 3 3 4 4 4 4 3 2 2 3 3 5 5 5 4 4 4 3 3 4 3 3
3 1 2 2 2 2 2 2 2 2 2 3 3 3 3 3 4 3 3 4 4 4 4 4 3 3 4 3 3 5 4 4 4 3 4 4 4 3
2 2 2 3 3 3 2 3 2 2 2 3 3 3 3 4 4 3 3 4 4 4 4 4 4 4 5 5 3 2 5 4 4 3 4 4 4 3
3 3 3 3 3 3 3 3 3 2 2 3 3 3 4 4 4 4 4 4 4 5 5 4 4 4 5 6 5 3 3 4 4 3 3 3 2 1
3 4 4 4 4 4 3 3 4 3 3 4 3 3 3 4 4 4 4 3 5 5 5 4 3 5 6 5 5 3 1 1 3 3 4 3 3 3
4 4 4 4 4 4 4 4 4 3 3 4 3 3 4 4 4 5 5 4 4 4 5 4 4 4 4 4 5 4 3 1 0 1 3 4 4 3
4 4 4 4 4 4 4 4 5 4 4 4 4 3 4 4 4 4 4 5 5 4 4 4 4 3 3 4 4 3 4 3 2 1 1 0 2 2
Wind_Direction
220 213 241 248 246 246 243 246 255 258 253 232 235 229 242 254 219 244 248 192 195 209 222 228 232 233 232 234 235 237 239 241 241 239 230 226 224 225
245 249 255 250 250 246 243 244 249 255 260 249 252 246 267 259 245 258 248 210 196 207 218 221 223 226 227 224 229 236 239 238 235 234 229 224 223 223
267 242 254 269 262 250 249 252 254 253 252 255 250 242 248 258 259 258 246 245 212 191 209 216 220 221 222 227 230 232 234 236 234 231 231 226 223 222
259 261 259 250 252 259 256 251 253 252 249 253 251 247 246 247 248 254 253 249 247 188 200 210 218 221 225 229 231 232 232 232 231 231 230 228 226 222
256 256 260 256 254 255 258 255 252 246 244 246 250 259 256 256 255 254 255 256 252 208 199 203 212 222 229 229 232 235 235 235 235 233 230 226 223 220
251 257 257 259 258 259 254 254 253 249 238 243 246 244 249 250 252 253 249 244 253 250 235 223 211 215 220 218 225 231 231 230 229 226 225 224 223 222
250 257 256 280 309 295 291 271 258 254 246 243 247 251 253 252 255 255 256 259 251 251 252 240 225 228 219 217 221 231 232 228 226 227 226 225 224 221
260 265 252 237 262 264 293 304 295 270 268 261 256 264 265 261 263 265 264 265 265 252 264 259 250 249 240 235 212 213 221 225 225 225 226 224 222 222
267 274 274 285 278 269 254 245 262 286 280 271 272 276 278 277 273 267 266 266 271 277 268 268 259 260 259 235 178 196 213 223 228 228 227 227 225 224
259 269 278 281 296 291 271 263 261 257 255 252 264 275 284 290 278 272 273 264 260 255 255 267 265 264 263 250 168 192 209 218 224 227 227 228 228 227
263 282 296 282 348 310 269 269 274 274 250 263 275 281 299 295 290 281 276 270 266 254 242 265 272 275 267 254 207 193 208 214 220 223 224 225 225 227
250 238 35 349 355 317 270 271 274 283 287 271 251 243 251 250 248 261 272 274 277 274 246 265 274 278 274 265 266 227 226 217 216 217 218 220 216 228
276 268 43 57 338 307 290 287 295 292 277 266 260 259 256 257 253 255 271 278 281 280 294 276 282 279 274 279 280 274 262 252 234 227 215 211 211 223
276 284 35 123 253 278 287 313 305 287 277 278 277 280 280 281 279 275 273 275 282 286 298 290 278 280 279 279 282 286 286 280 267 260 254 215 214 223
291 345 295 229 227 232 237 261 266 270 281 282 284 288 291 297 291 279 271 263 267 271 282 276 274 278 276 278 282 286 288 286 280 272 263 252 248 242
262 222 214 223 236 251 238 240 255 273 278 280 285 286 286 284 284 289 282 276 274 277 277 274 266 271 273 279 282 283 285 284 284 280 280 272 259 249
293 263 280 300 287 292 298 301 287 278 277 281 282 285 291 296 298 299 297 291 285 290 293 284 262 254 274 284 279 281 285 289 293 294 279 272 270 264
282 279 279 281 287 286 287 286 284 300 306 306 303 303 297 294 295 295 294 295 298 303 307 305 291 277 266 270 272 283 286 290 296 297 280 272 278 285
251 271 277 276 276 276 273 277 281 288 302 294 291 295 296 295 295 297 296 297 300 306 309 306 300 291 287 288 288 284 295 298 295 284 278 277 279 288
263 276 276 275 277 279 277 280 283 283 281 281 282 286 291 297 299 298 298 306 305 303 301 300 305 303 293 293 295 293 274 286 287 283 282 280 285 284
266 273 277 278 277 278 277 274 274 278 286 284 282 289 285 288 293 295 298 306 292 291 294 298 314 292 279 276 279 289 313 284 297 295 289 273 267 265
272 272 273 277 276 274 273 270 269 270 270 270 281 286 285 284 284 283 285 284 282 288 295 300 295 281 277 280 286 294 302 296 245 257 293 295 284 275
273 275 274 272 269 269 271 270 269 268 266 273 280 280 281 283 283 282 282 283 285 288 290 292 291 287 285 287 287 293 291 281 277 274 288 186 172 198